| time (UTC) | temp F | wind direction | speed MPH | gust MPH | rain 1hr in | rain 24hr in | rain mn in | humidity % | barometer mb |
| 20260903202621 | 95 | 166 | 8.0 | 12.0 | 0.00 | 0.01 | 0.01 | 54 | 1009.6 |
| 20260903202123 | 95 | 200 | 6.0 | 12.0 | 0.00 | 0.01 | 0.01 | 54 | 1009.5 |
| 20260903201627 | 95 | 66 | 4.0 | 15.0 | 0.00 | 0.01 | 0.01 | 55 | 1009.5 |
| 20260903201130 | 95 | 167 | 3.0 | 15.0 | 0.00 | 0.01 | 0.01 | 56 | 1009.7 |
| 20260903200634 | 95 | 207 | 6.0 | 14.0 | 0.00 | 0.01 | 0.01 | 55 | 1009.7 |
| 20260903200134 | 95 | 228 | 6.0 | 12.0 | 0.00 | 0.01 | 0.01 | 56 | 1009.7 |
| 20260903195618 | 95 | 177 | 6.0 | 12.0 | 0.00 | 0.01 | 0.01 | 56 | 1009.8 |
| 20260903195136 | 95 | 177 | 6.0 | 12.0 | 0.00 | 0.01 | 0.01 | 56 | 1009.8 |
| 20260903194644 | 95 | 144 | 4.0 | 12.0 | 0.00 | 0.01 | 0.01 | 58 | 1009.8 |
| 20260903194126 | 94 | 185 | 3.0 | 11.0 | 0.00 | 0.01 | 0.01 | 58 | 1009.8 |
| 20260903193631 | 94 | 212 | 4.0 | 11.0 | 0.00 | 0.01 | 0.01 | 59 | 1009.9 |
| 20260903193128 | 93 | 223 | 3.0 | 10.0 | 0.00 | 0.01 | 0.01 | 59 | 1010.0 |
| 20260903192633 | 93 | 237 | 5.0 | 10.0 | 0.00 | 0.01 | 0.01 | 60 | 1010.0 |
| 20260903192132 | 93 | 243 | 5.0 | 11.0 | 0.00 | 0.01 | 0.01 | 60 | 1010.1 |
| 20260903191638 | 93 | 171 | 3.0 | 11.0 | 0.00 | 0.01 | 0.01 | 60 | 1010.1 |
| 20260903191156 | 93 | 189 | 5.0 | 9.0 | 0.00 | 0.01 | 0.01 | 60 | 1010.2 |
| 20260903190618 | 92 | 138 | 2.0 | 9.0 | 0.00 | 0.01 | 0.01 | 60 | 1010.4 |
| 20260903190138 | 92 | 258 | 2.0 | 9.0 | 0.00 | 0.01 | 0.01 | 61 | 1010.6 |
| 20260903185625 | 92 | 149 | 5.0 | 11.0 | 0.00 | 0.01 | 0.01 | 61 | 1010.6 |
| 20260903185122 | 92 | 196 | 3.0 | 11.0 | 0.00 | 0.01 | 0.01 | 60 | 1010.6 |
| 20260903184630 | 92 | 148 | 6.0 | 11.0 | 0.00 | 0.01 | 0.01 | 60 | 1010.6 |
| 20260903184128 | 91 | 148 | 2.0 | 12.0 | 0.00 | 0.01 | 0.01 | 62 | 1010.8 |
| 20260903183636 | 91 | 175 | 5.0 | 13.0 | 0.00 | 0.01 | 0.01 | 62 | 1010.8 |
| 20260903183117 | 90 | 177 | 4.0 | 12.0 | 0.00 | 0.01 | 0.01 | 63 | 1010.9 |
| 20260903182621 | 90 | 167 | 5.0 | 8.0 | 0.00 | 0.01 | 0.01 | 63 | 1011.0 |
| 20260903182118 | 90 | 165 | 5.0 | 8.0 | 0.00 | 0.01 | 0.01 | 63 | 1011.1 |
| 20260903181621 | 90 | 168 | 3.0 | 7.0 | 0.00 | 0.01 | 0.01 | 62 | 1011.1 |
| 20260903181120 | 90 | 203 | 1.0 | 7.0 | 0.00 | 0.01 | 0.01 | 64 | 1011.2 |
| 20260903180623 | 89 | 140 | 3.0 | 8.0 | 0.00 | 0.01 | 0.01 | 63 | 1011.3 |
| 20260903180121 | 89 | 165 | 3.0 | 8.0 | 0.00 | 0.01 | 0.01 | 64 | 1011.4 |
| 20260903175624 | 89 | 235 | 5.0 | 7.0 | 0.00 | 0.01 | 0.01 | 64 | 1011.3 |
| 20260903175122 | 89 | 270 | 3.0 | 11.0 | 0.00 | 0.01 | 0.01 | 63 | 1011.5 |
| 20260903174627 | 89 | 291 | 3.0 | 11.0 | 0.00 | 0.01 | 0.01 | 64 | 1011.5 |
| 20260903174127 | 89 | 238 | 4.0 | 11.0 | 0.00 | 0.01 | 0.01 | 63 | 1011.5 |
| 20260903173633 | 88 | 252 | 3.0 | 11.0 | 0.00 | 0.01 | 0.01 | 64 | 1011.5 |
| 20260903173156 | 88 | 192 | 2.0 | 14.0 | 0.00 | 0.01 | 0.01 | 65 | 1011.4 |
| 20260903172622 | 87 | 153 | 4.0 | 14.0 | 0.00 | 0.01 | 0.01 | 66 | 1011.6 |
| 20260903172141 | 87 | 182 | 5.0 | 10.0 | 0.01 | 0.01 | 0.01 | 66 | 1011.6 |
| 20260903171644 | 86 | 233 | 4.0 | 10.0 | 0.01 | 0.01 | 0.01 | 67 | 1011.7 |
| 20260903171121 | 86 | 198 | 3.0 | 12.0 | 0.01 | 0.01 | 0.01 | 67 | 1011.6 |
| 20260903170620 | 85 | 162 | 6.0 | 12.0 | 0.01 | 0.01 | 0.01 | 69 | 1011.6 |
| 20260903170119 | 85 | 171 | 6.0 | 7.0 | 0.01 | 0.01 | 0.01 | 69 | 1011.7 |
| 20260903165625 | 85 | 260 | 4.0 | 7.0 | 0.01 | 0.01 | 0.01 | 69 | 1011.9 |
| 20260903165147 | 84 | 183 | 1.0 | 10.0 | 0.01 | 0.01 | 0.01 | 72 | 1012.0 |
| 20260903164631 | 84 | 173 | 6.0 | 10.0 | 0.01 | 0.01 | 0.01 | 72 | 1012.0 |
| 20260903164128 | 84 | 220 | 2.0 | 7.0 | 0.01 | 0.01 | 0.01 | 75 | 1011.8 |
| 20260903163630 | 83 | 95 | 4.0 | 7.0 | 0.01 | 0.01 | 0.01 | 74 | 1011.7 |
| 20260903163131 | 83 | 188 | 1.0 | 8.0 | 0.01 | 0.01 | 0.01 | 75 | 1011.6 |
| 20260903162635 | 84 | 189 | 2.0 | 8.0 | 0.01 | 0.01 | 0.01 | 73 | 1011.7 |
| 20260903162148 | 84 | 242 | 3.0 | 6.0 | 0.00 | 0.00 | 0.00 | 70 | 1011.7 |
| 20260903161631 | 84 | 193 | 4.0 | 7.0 | 0.00 | 0.00 | 0.00 | 69 | 1011.8 |
| 20260903161131 | 84 | 75 | 4.0 | 7.0 | 0.00 | 0.00 | 0.00 | 70 | 1011.8 |
| 20260903160634 | 83 | 198 | 4.0 | 9.0 | 0.00 | 0.00 | 0.00 | 71 | 1010.8 |
| 20260903160151 | 83 | 177 | 4.0 | 9.0 | 0.00 | 0.00 | 0.00 | 71 | 1010.7 |
| 20260903155634 | 83 | 175 | 3.0 | 11.0 | 0.00 | 0.00 | 0.00 | 71 | 1010.7 |
| 20260903155116 | 82 | 140 | 3.0 | 11.0 | 0.00 | 0.00 | 0.00 | 71 | 1010.9 |
| 20260903154624 | 82 | 204 | 3.0 | 8.0 | 0.00 | 0.00 | 0.00 | 72 | 1010.9 |
| 20260903154143 | 82 | 194 | 4.0 | 8.0 | 0.00 | 0.00 | 0.00 | 72 | 1011.0 |
| 20260903153630 | 82 | 174 | 4.0 | 8.0 | 0.00 | 0.00 | 0.00 | 72 | 1010.9 |
| 20260903153133 | 82 | 134 | 4.0 | 8.0 | 0.00 | 0.00 | 0.00 | 72 | 1011.1 |
| 20260903152618 | 82 | 128 | 2.0 | 5.0 | 0.00 | 0.00 | 0.00 | 72 | 1011.2 |
| 20260903152119 | 82 | 132 | 1.0 | 4.0 | 0.00 | 0.00 | 0.00 | 73 | 1011.2 |
| 20260903151623 | 82 | 183 | 1.0 | 4.0 | 0.00 | 0.00 | 0.00 | 74 | 1011.2 |
| 20260903151122 | 81 | 135 | 2.0 | 4.0 | 0.00 | 0.00 | 0.00 | 74 | 1011.2 |
| 20260903150626 | 81 | 29 | 0.0 | 1.0 | 0.00 | 0.00 | 0.00 | 75 | 1011.3 |
| 20260903150144 | 81 | 29 | 0.0 | 4.0 | 0.00 | 0.00 | 0.00 | 75 | 1011.4 |
| 20260903145631 | 81 | 29 | 2.0 | 5.0 | 0.00 | 0.00 | 0.00 | 74 | 1011.2 |
| 20260903145133 | 81 | 148 | 1.0 | 7.0 | 0.00 | 0.00 | 0.00 | 75 | 1011.0 |
| 20260903144636 | 81 | 121 | 1.0 | 9.0 | 0.00 | 0.00 | 0.00 | 74 | 1010.9 |
| 20260903144134 | 80 | 91 | 2.0 | 9.0 | 0.00 | 0.00 | 0.00 | 75 | 1010.9 |
| 20260903143657 | 80 | 125 | 4.0 | 9.0 | 0.00 | 0.00 | 0.00 | 74 | 1010.8 |
| 20260903143134 | 80 | 164 | 4.0 | 7.0 | 0.00 | 0.00 | 0.00 | 75 | 1010.8 |
| 20260903142618 | 80 | 124 | 1.0 | 6.0 | 0.00 | 0.00 | 0.00 | 76 | 1010.9 |
| 20260903142135 | 80 | 124 | 0.0 | 6.0 | 0.00 | 0.00 | 0.00 | 75 | 1010.8 |
| 20260903141619 | 80 | 135 | 2.0 | 8.0 | 0.00 | 0.00 | 0.00 | 73 | 1010.8 |
| 20260903141116 | 80 | 177 | 4.0 | 8.0 | 0.00 | 0.00 | 0.00 | 73 | 1010.8 |
| 20260903140620 | 80 | 132 | 2.0 | 9.0 | 0.00 | 0.00 | 0.00 | 73 | 1010.7 |
| 20260903140120 | 80 | 152 | 3.0 | 9.0 | 0.00 | 0.00 | 0.00 | 73 | 1010.7 |
| 20260903135628 | 80 | 123 | 2.0 | 6.0 | 0.00 | 0.00 | 0.00 | 74 | 1010.7 |
| 20260903135149 | 80 | 158 | 2.0 | 7.0 | 0.00 | 0.00 | 0.00 | 75 | 1010.8 |
| 20260903134631 | 79 | 160 | 4.0 | 7.0 | 0.00 | 0.00 | 0.00 | 75 | 1010.7 |
| 20260903134129 | 79 | 175 | 1.0 | 4.0 | 0.00 | 0.00 | 0.00 | 77 | 1010.8 |
| 20260903133633 | 79 | 82 | 0.0 | 2.0 | 0.00 | 0.00 | 0.00 | 77 | 1010.8 |
| 20260903133132 | 79 | 82 | 0.0 | 2.0 | 0.00 | 0.00 | 0.00 | 77 | 1010.9 |
| 20260903132636 | 79 | 75 | 0.0 | 2.0 | 0.00 | 0.00 | 0.00 | 77 | 1010.9 |
| 20260903132134 | 79 | 75 | 0.0 | 3.0 | 0.00 | 0.00 | 0.00 | 77 | 1011.0 |
| 20260903131638 | 79 | 81 | 1.0 | 5.0 | 0.00 | 0.00 | 0.00 | 77 | 1011.0 |
| 20260903131155 | 78 | 104 | 0.0 | 5.0 | 0.00 | 0.00 | 0.00 | 78 | 1011.0 |
| 20260903130617 | 78 | 67 | 1.0 | 3.0 | 0.00 | 0.00 | 0.00 | 78 | 1011.1 |
| 20260903130116 | 78 | 214 | 0.0 | 2.0 | 0.00 | 0.00 | 0.00 | 78 | 1011.2 |
| 20260903125640 | 78 | 214 | 1.0 | 3.0 | 0.00 | 0.00 | 0.00 | 78 | 1011.2 |
| 20260903125154 | 78 | 214 | 1.0 | 3.0 | 0.00 | 0.00 | 0.00 | 78 | 1011.4 |
| 20260903124618 | 78 | 214 | 1.0 | 2.0 | 0.00 | 0.00 | 0.00 | 78 | 1011.4 |
| 20260903124118 | 78 | 214 | 1.0 | 2.0 | 0.00 | 0.00 | 0.00 | 79 | 1011.4 |
| 20260903123622 | 79 | 214 | 0.0 | 0.0 | 0.00 | 0.00 | 0.00 | 78 | 1011.3 |
| 20260903123143 | 79 | 214 | 0.0 | 0.0 | 0.00 | 0.00 | 0.00 | 78 | 1011.3 |
| 20260903122627 | 79 | 214 | 0.0 | 0.0 | 0.00 | 0.00 | 0.00 | 77 | 1011.2 |
| 20260903122129 | 79 | 214 | 0.0 | 1.0 | 0.00 | 0.00 | 0.00 | 76 | 1011.1 |
| 20260903121636 | 79 | 214 | 0.0 | 1.0 | 0.00 | 0.00 | 0.00 | 75 | 1010.9 |
| 20260903121114 | 79 | 214 | 0.0 | 1.0 | 0.00 | 0.00 | 0.00 | 75 | 1010.9 |
| 20260903120621 | 79 | 214 | 1.0 | 2.0 | 0.00 | 0.00 | 0.00 | 75 | 1010.8 |
| 20260903120146 | 79 | 214 | 1.0 | 3.0 | 0.00 | 0.00 | 0.00 | 75 | 1010.7 |
| 20260903115630 | 79 | 214 | 0.0 | 3.0 | 0.00 | 0.00 | 0.00 | 75 | 1010.7 |
| 20260903115130 | 79 | 214 | 2.0 | 3.0 | 0.00 | 0.00 | 0.00 | 76 | 1010.7 |
| 20260903114618 | 79 | 214 | 0.0 | 2.0 | 0.00 | 0.00 | 0.00 | 76 | 1010.6 |
| 20260903114118 | 78 | 154 | 0.0 | 1.0 | 0.00 | 0.00 | 0.00 | 75 | 1010.7 |
| 20260903113625 | 79 | 154 | 0.0 | 1.0 | 0.00 | 0.00 | 0.00 | 76 | 1010.7 |
| 20260903113126 | 79 | 154 | 0.0 | 3.0 | 0.00 | 0.00 | 0.00 | 75 | 1010.7 |
| 20260903112631 | 78 | 255 | 0.0 | 3.0 | 0.00 | 0.00 | 0.00 | 75 | 1010.6 |
| 20260903112132 | 78 | 229 | 0.0 | 3.0 | 0.00 | 0.00 | 0.00 | 76 | 1010.4 |
| 20260903111636 | 78 | 277 | 1.0 | 4.0 | 0.00 | 0.00 | 0.00 | 74 | 1010.4 |
| 20260903111153 | 78 | 202 | 0.0 | 6.0 | 0.00 | 0.00 | 0.00 | 76 | 1010.4 |
| 20260903110619 | 78 | 177 | 2.0 | 6.0 | 0.00 | 0.00 | 0.00 | 77 | 1010.4 |
| 20260903110142 | 77 | 167 | 1.0 | 4.0 | 0.00 | 0.00 | 0.00 | 78 | 1010.4 |
| 20260903105625 | 77 | 233 | 1.0 | 2.0 | 0.00 | 0.00 | 0.00 | 78 | 1010.4 |
| 20260903105122 | 77 | 233 | 0.0 | 1.0 | 0.00 | 0.00 | 0.00 | 78 | 1010.4 |
| 20260903104646 | 78 | 233 | 0.0 | 0.0 | 0.00 | 0.00 | 0.00 | 79 | 1010.5 |
| 20260903104124 | 78 | 233 | 0.0 | 0.0 | 0.00 | 0.00 | 0.00 | 79 | 1010.6 |
| 20260903103628 | 78 | 233 | 0.0 | 2.0 | 0.00 | 0.00 | 0.00 | 78 | 1010.6 |
| 20260903103127 | 79 | 233 | 0.0 | 3.0 | 0.00 | 0.00 | 0.00 | 76 | 1010.7 |
| 20260903102631 | 79 | 233 | 2.0 | 5.0 | 0.00 | 0.00 | 0.00 | 74 | 1010.7 |
| 20260903102129 | 80 | 225 | 0.0 | 6.0 | 0.00 | 0.00 | 0.00 | 73 | 1010.7 |
| 20260903101631 | 80 | 253 | 2.0 | 8.0 | 0.00 | 0.00 | 0.00 | 70 | 1010.7 |
| 20260903101153 | 81 | 256 | 4.0 | 8.0 | 0.00 | 0.00 | 0.00 | 69 | 1010.6 |
| 20260903100623 | 81 | 307 | 2.0 | 6.0 | 0.00 | 0.00 | 0.00 | 69 | 1010.4 |
| 20260903100122 | 81 | 163 | 4.0 | 10.0 | 0.00 | 0.00 | 0.00 | 69 | 1010.3 |
| 20260903095627 | 81 | 172 | 4.0 | 10.0 | 0.00 | 0.00 | 0.00 | 69 | 1010.2 |
| 20260903095149 | 81 | 220 | 3.0 | 7.0 | 0.00 | 0.00 | 0.00 | 69 | 1010.1 |
| 20260903094615 | 80 | 241 | 2.0 | 6.0 | 0.00 | 0.00 | 0.00 | 68 | 1010.1 |
| 20260903094135 | 81 | 231 | 2.0 | 7.0 | 0.00 | 0.00 | 0.00 | 69 | 1010.1 |
| 20260903093617 | 81 | 192 | 3.0 | 7.0 | 0.00 | 0.00 | 0.00 | 69 | 1010.1 |
| 20260903093135 | 81 | 333 | 3.0 | 7.0 | 0.00 | 0.00 | 0.00 | 69 | 1010.2 |
| 20260903092619 | 81 | 227 | 1.0 | 7.0 | 0.00 | 0.00 | 0.00 | 69 | 1010.2 |
| 20260903092119 | 81 | 194 | 2.0 | 8.0 | 0.00 | 0.00 | 0.00 | 69 | 1010.2 |
| 20260903091627 | 81 | 247 | 2.0 | 8.0 | 0.00 | 0.00 | 0.00 | 69 | 1010.2 |
| 20260903091126 | 81 | 170 | 4.0 | 7.0 | 0.00 | 0.00 | 0.00 | 69 | 1010.3 |
| 20260903090650 | 81 | 175 | 1.0 | 10.0 | 0.00 | 0.00 | 0.00 | 69 | 1010.2 |
| 20260903090129 | 81 | 132 | 1.0 | 10.0 | 0.00 | 0.00 | 0.00 | 68 | 1010.2 |
| 20260903085636 | 81 | 220 | 1.0 | 8.0 | 0.00 | 0.00 | 0.00 | 68 | 1010.3 |
| 20260903085114 | 81 | 127 | 2.0 | 9.0 | 0.00 | 0.00 | 0.00 | 67 | 1010.3 |
| 20260903084640 | 81 | 212 | 2.0 | 9.0 | 0.00 | 0.00 | 0.00 | 67 | 1010.4 |
| 20260903084138 | 81 | 175 | 5.0 | 9.0 | 0.00 | 0.00 | 0.00 | 67 | 1010.3 |
| 20260903083624 | 81 | 241 | 3.0 | 8.0 | 0.00 | 0.00 | 0.00 | 67 | 1010.3 |
| 20260903083123 | 81 | 198 | 4.0 | 8.0 | 0.00 | 0.00 | 0.00 | 67 | 1010.4 |
| 20260903082655 | 82 | 282 | 1.0 | 8.0 | 0.00 | 0.00 | 0.00 | 67 | 1010.4 |
| 20260903082132 | 82 | 180 | 2.0 | 8.0 | 0.00 | 0.00 | 0.00 | 67 | 1010.3 |
| 20260903081636 | 82 | 136 | 3.0 | 8.0 | 0.00 | 0.00 | 0.00 | 67 | 1010.2 |
| 20260903081152 | 82 | 185 | 1.0 | 8.0 | 0.00 | 0.00 | 0.00 | 67 | 1010.3 |
| 20260903080654 | 82 | 190 | 2.0 | 11.0 | 0.00 | 0.00 | 0.00 | 67 | 1010.3 |
| 20260903080152 | 82 | 237 | 3.0 | 11.0 | 0.00 | 0.00 | 0.00 | 67 | 1010.3 |
| 20260903075614 | 82 | 165 | 2.0 | 9.0 | 0.00 | 0.00 | 0.00 | 67 | 1010.3 |
| 20260903075135 | 82 | 140 | 2.0 | 9.0 | 0.00 | 0.00 | 0.00 | 67 | 1010.3 |
| 20260903074619 | 82 | 176 | 2.0 | 7.0 | 0.00 | 0.00 | 0.00 | 67 | 1010.4 |
| 20260903074137 | 82 | 215 | 4.0 | 7.0 | 0.00 | 0.00 | 0.00 | 67 | 1010.3 |
| 20260903073620 | 82 | 248 | 3.0 | 11.0 | 0.00 | 0.00 | 0.00 | 67 | 1010.4 |
| 20260903073117 | 82 | 208 | 2.0 | 11.0 | 0.00 | 0.00 | 0.00 | 67 | 1010.3 |
| 20260903072627 | 82 | 244 | 2.0 | 10.0 | 0.00 | 0.00 | 0.00 | 67 | 1010.4 |
| 20260903072125 | 82 | 161 | 6.0 | 10.0 | 0.00 | 0.00 | 0.00 | 67 | 1010.3 |
| 20260903071654 | 82 | 252 | 4.0 | 9.0 | 0.00 | 0.00 | 0.00 | 67 | 1010.4 |
| 20260903071135 | 82 | 277 | 4.0 | 9.0 | 0.00 | 0.00 | 0.00 | 67 | 1010.4 |
| 20260903070639 | 82 | 177 | 3.0 | 13.0 | 0.00 | 0.00 | 0.00 | 67 | 1010.4 |
| 20260903070118 | 82 | 177 | 5.0 | 13.0 | 0.00 | 0.00 | 0.00 | 67 | 1010.4 |
| 20260903065642 | 82 | 254 | 4.0 | 11.0 | 0.00 | 0.00 | 0.00 | 68 | 1010.4 |
| 20260903065119 | 82 | 228 | 2.0 | 9.0 | 0.00 | 0.00 | 0.00 | 68 | 1010.4 |
| 20260903064622 | 82 | 211 | 3.0 | 9.0 | 0.00 | 0.00 | 0.00 | 68 | 1010.4 |
| 20260903064119 | 83 | 208 | 5.0 | 10.0 | 0.00 | 0.00 | 0.00 | 67 | 1010.4 |
| 20260903063623 | 84 | 192 | 6.0 | 10.0 | 0.00 | 0.00 | 0.00 | 65 | 1010.4 |
| 20260903063121 | 84 | 227 | 5.0 | 10.0 | 0.00 | 0.00 | 0.00 | 64 | 1010.4 |
| 20260903062625 | 84 | 221 | 2.0 | 8.0 | 0.00 | 0.00 | 0.00 | 64 | 1010.5 |
| 20260903062123 | 84 | 203 | 4.0 | 8.0 | 0.00 | 0.00 | 0.00 | 64 | 1010.5 |
| 20260903061627 | 84 | 230 | 6.0 | 8.0 | 0.00 | 0.00 | 0.00 | 63 | 1010.4 |
| 20260903061148 | 84 | 202 | 4.0 | 9.0 | 0.00 | 0.00 | 0.00 | 63 | 1010.5 |
| 20260903060633 | 84 | 250 | 5.0 | 11.0 | 0.00 | 0.00 | 0.00 | 63 | 1010.5 |
| 20260903060116 | 84 | 158 | 5.0 | 11.0 | 0.00 | 0.00 | 0.00 | 62 | 1010.5 |
| 20260903055642 | 84 | 215 | 4.0 | 9.0 | 0.00 | 0.00 | 0.00 | 62 | 1010.5 |
| 20260903055139 | 84 | 198 | 4.0 | 14.0 | 0.00 | 0.00 | 0.00 | 62 | 1010.6 |
| 20260903054622 | 84 | 276 | 2.0 | 8.0 | 0.00 | 0.00 | 0.00 | 62 | 1010.6 |
| 20260903054121 | 85 | 147 | 4.0 | 9.0 | 0.00 | 0.00 | 0.00 | 62 | 1010.5 |
| 20260903053624 | 85 | 164 | 4.0 | 9.0 | 0.00 | 0.00 | 0.00 | 62 | 1010.5 |
| 20260903053122 | 85 | 293 | 3.0 | 10.0 | 0.00 | 0.00 | 0.00 | 62 | 1010.5 |
| 20260903052627 | 85 | 173 | 3.0 | 12.0 | 0.00 | 0.00 | 0.00 | 62 | 1010.5 |
| 20260903052128 | 85 | 233 | 4.0 | 12.0 | 0.00 | 0.00 | 0.00 | 62 | 1010.5 |
| 20260903051652 | 85 | 160 | 2.0 | 7.0 | 0.00 | 0.00 | 0.00 | 61 | 1010.4 |
| 20260903051130 | 85 | 198 | 3.0 | 7.0 | 0.00 | 0.00 | 0.00 | 61 | 1010.5 |
| 20260903050635 | 85 | 209 | 3.0 | 7.0 | 0.00 | 0.00 | 0.00 | 61 | 1010.5 |
| 20260903050133 | 85 | 175 | 3.0 | 7.0 | 0.00 | 0.00 | 0.00 | 61 | 1010.5 |
| 20260903045625 | 85 | 254 | 2.0 | 10.0 | 0.00 | 0.00 | 0.00 | 61 | 1010.5 |
| 20260903045127 | 86 | 189 | 4.0 | 10.0 | 0.00 | 0.00 | 0.00 | 60 | 1010.6 |
| 20260903044654 | 86 | 184 | 3.0 | 11.0 | 0.00 | 0.00 | 0.00 | 60 | 1010.6 |
| 20260903044133 | 86 | 192 | 5.0 | 11.0 | 0.00 | 0.00 | 0.00 | 60 | 1010.6 |
| 20260903043642 | 86 | 196 | 3.0 | 9.0 | 0.00 | 0.00 | 0.00 | 60 | 1010.6 |
| 20260903043145 | 86 | 208 | 6.0 | 9.0 | 0.00 | 0.00 | 0.00 | 59 | 1010.5 |
| 20260903042629 | 86 | 153 | 5.0 | 9.0 | 0.00 | 0.00 | 0.00 | 59 | 1010.4 |
| 20260903042134 | 86 | 189 | 4.0 | 10.0 | 0.00 | 0.00 | 0.00 | 59 | 1010.5 |
| 20260903041657 | 86 | 175 | 3.0 | 10.0 | 0.00 | 0.00 | 0.00 | 59 | 1010.5 |
| 20260903041135 | 87 | 89 | 3.0 | 9.0 | 0.00 | 0.00 | 0.00 | 58 | 1010.5 |
| 20260903040618 | 87 | 229 | 2.0 | 9.0 | 0.00 | 0.00 | 0.00 | 58 | 1010.5 |
| 20260903040137 | 87 | 221 | 3.0 | 8.0 | 0.00 | 0.00 | 0.00 | 58 | 1010.5 |
| 20260903035621 | 87 | 191 | 4.0 | 10.0 | 0.00 | 0.00 | 0.00 | 58 | 1010.5 |
| 20260903035118 | 87 | 245 | 3.0 | 10.0 | 0.00 | 0.00 | 0.00 | 58 | 1010.5 |
| 20260903034621 | 87 | 200 | 3.0 | 11.0 | 0.00 | 0.00 | 0.00 | 57 | 1010.3 |
| 20260903034120 | 87 | 237 | 5.0 | 11.0 | 0.00 | 0.00 | 0.00 | 57 | 1010.4 |
| 20260903033623 | 88 | 177 | 2.0 | 10.0 | 0.00 | 0.00 | 0.00 | 57 | 1010.3 |
| 20260903033121 | 88 | 173 | 4.0 | 10.0 | 0.00 | 0.00 | 0.00 | 57 | 1010.3 |
| 20260903032651 | 88 | 173 | 2.0 | 10.0 | 0.00 | 0.00 | 0.00 | 57 | 1010.4 |
| 20260903032127 | 88 | 186 | 3.0 | 8.0 | 0.00 | 0.00 | 0.00 | 56 | 1010.3 |
| 20260903031636 | 88 | 183 | 3.0 | 8.0 | 0.00 | 0.00 | 0.00 | 56 | 1010.3 |
| 20260903031132 | 88 | 207 | 1.0 | 6.0 | 0.00 | 0.00 | 0.00 | 56 | 1010.3 |
| 20260903030634 | 88 | 209 | 2.0 | 11.0 | 0.00 | 0.00 | 0.00 | 56 | 1010.4 |
| 20260903030115 | 88 | 207 | 3.0 | 7.0 | 0.00 | 0.00 | 0.00 | 56 | 1010.4 |
| 20260903025620 | 88 | 223 | 4.0 | 10.0 | 0.00 | 0.00 | 0.00 | 56 | 1010.3 |
| 20260903025118 | 88 | 173 | 5.0 | 10.0 | 0.00 | 0.00 | 0.00 | 56 | 1010.3 |
| 20260903024622 | 89 | 185 | 2.0 | 9.0 | 0.00 | 0.00 | 0.00 | 56 | 1010.3 |
| 20260903024120 | 89 | 137 | 5.0 | 9.0 | 0.00 | 0.00 | 0.00 | 56 | 1010.2 |
| 20260903023624 | 89 | 174 | 3.0 | 7.0 | 0.00 | 0.00 | 0.00 | 56 | 1010.3 |
| 20260903023124 | 89 | 181 | 3.0 | 6.0 | 0.00 | 0.00 | 0.00 | 55 | 1010.2 |
| 20260903022629 | 89 | 240 | 3.0 | 6.0 | 0.00 | 0.00 | 0.00 | 55 | 1010.1 |
| 20260903022126 | 89 | 179 | 4.0 | 6.0 | 0.00 | 0.00 | 0.00 | 54 | 1010.1 |
| 20260903021632 | 90 | 212 | 3.0 | 6.0 | 0.00 | 0.00 | 0.00 | 54 | 1010.1 |
| 20260903021136 | 90 | 196 | 1.0 | 7.0 | 0.00 | 0.00 | 0.00 | 53 | 1010.0 |
| 20260903020619 | 90 | 218 | 5.0 | 9.0 | 0.00 | 0.00 | 0.00 | 53 | 1009.9 |
| 20260903020119 | 90 | 208 | 1.0 | 9.0 | 0.00 | 0.00 | 0.00 | 53 | 1009.9 |
| 20260903015623 | 90 | 223 | 2.0 | 7.0 | 0.00 | 0.00 | 0.00 | 53 | 1009.8 |
| 20260903015145 | 91 | 115 | 2.0 | 7.0 | 0.00 | 0.00 | 0.00 | 53 | 1009.7 |
| 20260903014627 | 91 | 228 | 2.0 | 8.0 | 0.00 | 0.00 | 0.00 | 53 | 1009.7 |
| 20260903014124 | 91 | 176 | 4.0 | 7.0 | 0.00 | 0.00 | 0.00 | 53 | 1009.7 |
| 20260903013628 | 91 | 223 | 3.0 | 8.0 | 0.00 | 0.00 | 0.00 | 53 | 1009.7 |
| 20260903013143 | 91 | 197 | 5.0 | 9.0 | 0.00 | 0.00 | 0.00 | 54 | 1009.6 |
| 20260903012624 | 91 | 254 | 2.0 | 10.0 | 0.00 | 0.00 | 0.00 | 54 | 1009.5 |
| 20260903012125 | 92 | 166 | 4.0 | 10.0 | 0.00 | 0.00 | 0.00 | 53 | 1009.5 |
| 20260903011653 | 91 | 206 | 3.0 | 10.0 | 0.00 | 0.00 | 0.00 | 54 | 1009.5 |
| 20260903011131 | 91 | 256 | 1.0 | 6.0 | 0.00 | 0.00 | 0.00 | 54 | 1009.4 |
| 20260903010618 | 92 | 158 | 1.0 | 7.0 | 0.00 | 0.00 | 0.00 | 55 | 1009.5 |
| 20260903010156 | 92 | 229 | 2.0 | 8.0 | 0.00 | 0.00 | 0.00 | 54 | 1009.4 |
| 20260903005617 | 92 | 211 | 3.0 | 8.0 | 0.00 | 0.00 | 0.00 | 55 | 1009.5 |
| 20260903005117 | 92 | 185 | 1.0 | 5.0 | 0.00 | 0.00 | 0.00 | 55 | 1009.5 |
| 20260903004623 | 93 | 175 | 1.0 | 5.0 | 0.00 | 0.00 | 0.00 | 54 | 1009.5 |
| 20260903004122 | 93 | 179 | 2.0 | 5.0 | 0.00 | 0.00 | 0.00 | 54 | 1009.5 |
| 20260903003630 | 93 | 189 | 2.0 | 5.0 | 0.00 | 0.00 | 0.00 | 53 | 1009.6 |
| 20260903003128 | 94 | 143 | 1.0 | 6.0 | 0.00 | 0.00 | 0.00 | 53 | 1009.5 |
| 20260903002631 | 94 | 206 | 3.0 | 9.0 | 0.00 | 0.00 | 0.00 | 52 | 1009.6 |
| 20260903002131 | 94 | 184 | 4.0 | 9.0 | 0.00 | 0.00 | 0.00 | 52 | 1009.5 |
| 20260903001635 | 95 | 221 | 1.0 | 6.0 | 0.00 | 0.00 | 0.00 | 52 | 1009.5 |
| 20260903001131 | 95 | 271 | 2.0 | 7.0 | 0.00 | 0.00 | 0.00 | 51 | 1009.5 |
| 20260903000657 | 95 | 226 | 1.0 | 7.0 | 0.00 | 0.00 | 0.00 | 51 | 1009.5 |
| 20260903000133 | 96 | 198 | 4.0 | 6.0 | 0.00 | 0.00 | 0.00 | 51 | 1009.5 |
| 20260902235618 | 96 | 209 | 1.0 | 7.0 | 0.00 | 0.00 | 0.00 | 51 | 1009.5 |
| 20260902235131 | 96 | 165 | 2.0 | 7.0 | 0.00 | 0.00 | 0.00 | 50 | 1009.6 |
| 20260902234619 | 96 | 199 | 1.0 | 5.0 | 0.00 | 0.00 | 0.00 | 50 | 1009.6 |
| 20260902234119 | 97 | 200 | 3.0 | 10.0 | 0.00 | 0.00 | 0.00 | 49 | 1009.6 |
| 20260902233627 | 97 | 188 | 1.0 | 10.0 | 0.00 | 0.00 | 0.00 | 49 | 1009.6 |
| 20260902233132 | 97 | 171 | 3.0 | 8.0 | 0.00 | 0.00 | 0.00 | 49 | 1009.6 |
| 20260902232622 | 96 | 175 | 1.0 | 10.0 | 0.00 | 0.00 | 0.00 | 49 | 1009.6 |
| 20260902232120 | 96 | 210 | 3.0 | 10.0 | 0.00 | 0.00 | 0.00 | 48 | 1009.6 |
| 20260902231625 | 97 | 204 | 6.0 | 9.0 | 0.00 | 0.00 | 0.00 | 48 | 1009.5 |
| 20260902231128 | 97 | 179 | 2.0 | 9.0 | 0.00 | 0.00 | 0.00 | 48 | 1009.6 |
| 20260902230632 | 97 | 258 | 3.0 | 9.0 | 0.00 | 0.00 | 0.00 | 49 | 1009.6 |
| 20260902230136 | 97 | 251 | 4.0 | 9.0 | 0.00 | 0.00 | 0.00 | 48 | 1009.6 |
| 20260902225621 | 97 | 192 | 4.0 | 10.0 | 0.00 | 0.00 | 0.00 | 48 | 1009.7 |
| 20260902225118 | 97 | 210 | 6.0 | 10.0 | 0.00 | 0.00 | 0.00 | 47 | 1009.7 |
| 20260902224627 | 97 | 181 | 2.0 | 14.0 | 0.00 | 0.00 | 0.00 | 48 | 1009.7 |
| 20260902224114 | 97 | 219 | 4.0 | 17.0 | 0.00 | 0.00 | 0.00 | 49 | 1009.8 |
| 20260902223622 | 96 | 168 | 4.0 | 17.0 | 0.00 | 0.00 | 0.00 | 49 | 1009.7 |
| 20260902223140 | 96 | 248 | 5.0 | 10.0 | 0.00 | 0.00 | 0.00 | 49 | 1009.7 |
| 20260902222624 | 96 | 316 | 2.0 | 11.0 | 0.00 | 0.00 | 0.00 | 51 | 1009.8 |
| 20260902222140 | 96 | 215 | 4.0 | 11.0 | 0.00 | 0.00 | 0.00 | 50 | 1009.8 |
| 20260902221625 | 97 | 165 | 3.0 | 14.0 | 0.00 | 0.00 | 0.00 | 50 | 1009.8 |
| 20260902221125 | 97 | 259 | 5.0 | 14.0 | 0.00 | 0.00 | 0.00 | 49 | 1009.7 |
| 20260902220656 | 97 | 293 | 5.0 | 10.0 | 0.00 | 0.00 | 0.00 | 48 | 1009.8 |
| 20260902220154 | 98 | 199 | 6.0 | 14.0 | 0.00 | 0.00 | 0.00 | 48 | 1009.9 |
| 20260902215636 | 98 | 236 | 5.0 | 14.0 | 0.00 | 0.00 | 0.00 | 49 | 1009.7 |
| 20260902215133 | 97 | 150 | 2.0 | 19.0 | 0.00 | 0.00 | 0.00 | 49 | 1009.7 |
| 20260902214621 | 97 | 247 | 6.0 | 19.0 | 0.00 | 0.00 | 0.00 | 47 | 1009.8 |
| 20260902214119 | 98 | 260 | 6.0 | 11.0 | 0.00 | 0.00 | 0.00 | 48 | 1009.8 |
| 20260902213642 | 98 | 216 | 5.0 | 9.0 | 0.00 | 0.00 | 0.00 | 48 | 1009.8 |
| 20260902213121 | 98 | 189 | 5.0 | 9.0 | 0.00 | 0.00 | 0.00 | 48 | 1009.8 |
| 20260902212625 | 97 | 316 | 6.0 | 13.0 | 0.00 | 0.00 | 0.00 | 48 | 1009.9 |
| 20260902212141 | 97 | 185 | 5.0 | 13.0 | 0.00 | 0.00 | 0.00 | 48 | 1009.9 |
| 20260902211622 | 97 | 205 | 6.0 | 14.0 | 0.00 | 0.00 | 0.00 | 48 | 1009.9 |
| 20260902211119 | 97 | 198 | 4.0 | 17.0 | 0.00 | 0.00 | 0.00 | 48 | 1010.1 |
| 20260902210643 | 96 | 127 | 7.0 | 17.0 | 0.00 | 0.00 | 0.00 | 48 | 1010.0 |
| 20260902210123 | 96 | 300 | 3.0 | 13.0 | 0.00 | 0.00 | 0.00 | 49 | 1010.2 |
| 20260902205646 | 96 | 243 | 6.0 | 11.0 | 0.00 | 0.00 | 0.00 | 49 | 1010.2 |
| 20260902205126 | 96 | 223 | 5.0 | 14.0 | 0.00 | 0.00 | 0.00 | 49 | 1010.2 |
| 20260902204630 | 96 | 291 | 7.0 | 14.0 | 0.00 | 0.00 | 0.00 | 48 | 1010.2 |
| 20260902204126 | 96 | 225 | 8.0 | 11.0 | 0.00 | 0.00 | 0.00 | 49 | 1010.2 |
| 20260902203629 | 96 | 211 | 5.0 | 15.0 | 0.00 | 0.00 | 0.00 | 50 | 1010.3 |
| 20260902203128 | 96 | 219 | 9.0 | 15.0 | 0.00 | 0.00 | 0.00 | 49 | 1010.4 |